[[{"header":{"parameterUnit":"m.s-1","parameterCategory":1,"la1":30.2991,"la2":30.254,"lo1":-89.0895,"lo2":-89.0444,"dy":0.0017,"dx":0.0017,"nx":28,"ny":28,"refTime":"2024-06-04T03:00:00:Z","depth":0,"parameterNumber":2,"parameterNumberName":"U-component_of_WINDS"},"data":[0,0,0,0,0,0,0,0,0,0,0,0,0,0,0,0,0,0,0,0,0,0,0,0,0,0,0,0,0,0,0,0,0,0,0,0,0,0,0,0,0,0,0,0,0,0,0,0,0,0,0,0,0,0,0,0,0,0,-2.3216,-2.3217,0,-2.3264,-2.3264,-2.3265,-2.3237,-2.3236,-2.3235,-2.3234,-2.3285,-2.3287,-2.329,0,0,0,0,0,0,0,0,0,0,0,0,0,-2.3107,-2.3109,-2.3216,-2.3217,-2.3218,-2.3263,-2.3264,-2.3265,-2.3238,-2.3236,-2.3234,-2.3233,-2.3284,-2.3287,-2.329,0,0,0,0,0,0,0,0,0,0,0,0,0,-2.3155,-2.311,-2.3216,-2.321,-2.3209,-2.3263,-2.3264,-2.3265,-2.3238,-2.3236,-2.3234,-2.3232,-2.3283,-2.3286,-2.329,-2.3354,0,0,-2.3302,-2.3304,0,0,0,0,0,0,0,0,-2.3152,-2.3159,-2.321,-2.321,-2.321,-2.3242,-2.3244,-2.3295,-2.3239,-2.3227,-2.3233,-2.3231,-2.3272,-2.3277,-2.329,-2.3357,-2.3359,-2.3303,-2.3305,-2.3307,-2.3308,0,0,0,0,0,0,0,-2.3149,-2.3157,-2.3235,-2.3211,-2.3211,-2.3206,-2.321,-2.3254,-2.3261,-2.3228,-2.3226,-2.3232,-2.3272,-2.3287,-2.3291,-2.336,-2.3302,-2.3306,-2.3308,-2.331,-2.3483,-2.3485,0,0,0,0,0,0,-2.3145,-2.3154,-2.3234,-2.3237,-2.3175,-2.3209,-2.3214,-2.3234,-2.326,-2.3262,-2.3234,-2.3231,-2.3281,-2.3287,-2.3293,-2.337,-2.3307,-2.331,-2.3312,-2.3481,-2.3484,-2.3486,0,0,0,0,0,0,-2.3143,-2.3153,-2.3232,-2.3195,-2.3204,-2.3213,-2.3236,-2.3236,-2.3251,-2.3264,-2.3266,-2.3247,-2.328,-2.3287,-2.334,-2.3372,-2.3312,-2.3316,-2.3478,-2.3482,-2.3485,-2.3525,0,0,0,0,0,0,-2.314,-2.3152,-2.3175,-2.3195,-2.3206,-2.3276,-2.3238,-2.3239,-2.3257,-2.3253,-2.3277,-2.3279,-2.3279,-2.3334,-2.3343,-2.3376,-2.3319,-2.3475,-2.348,-2.3484,-2.3521,-2.3529,-2.3537,0,0,0,0,0,-2.3136,-2.3185,-2.3177,-2.3186,-2.3235,-2.3278,-2.3284,-2.3282,-2.326,-2.3284,-2.3293,-2.3278,-2.3367,-2.3339,-2.335,-2.3384,-2.3473,-2.3479,-2.3484,-2.3517,-2.3528,-2.3536,0,0,0,0,0,0,-2.3169,-2.3187,-2.3178,-2.3235,-2.3255,-2.3273,-2.3303,-2.3293,-2.3321,-2.3316,-2.3313,-2.3319,-2.3373,-2.3384,-2.3353,-2.3449,-2.3417,-2.3424,-2.3439,-2.3449,-2.3457,-2.3452,-2.3322,0,0,0,0,0,-2.3183,-2.3214,-2.3229,-2.3278,-2.3288,-2.3295,-2.3313,-2.331,-2.3331,-2.3339,-2.3352,-2.3374,-2.3407,-2.3429,-2.346,-2.3523,-2.3528,-2.3552,-2.356,-2.3566,-2.3572,-2.3608,-2.3619,-2.3503,-2.3503,-2.3503,0,0,-2.3211,-2.3225,-2.3245,-2.3285,-2.33,-2.3334,-2.3302,-2.3339,-2.3365,-2.3345,-2.3395,-2.3406,-2.343,-2.3488,-2.3515,-2.3499,-2.3606,-2.3573,-2.3578,-2.3581,-2.3614,-2.3625,-2.3635,-2.3506,-2.3506,-2.3505,0,0,-2.328,-2.3294,-2.3336,-2.3352,-2.3376,-2.338,-2.3391,-2.3411,-2.3417,-2.3467,-2.3453,-2.3485,-2.3542,-2.356,-2.3577,-2.3656,-2.3644,-2.3667,-2.3708,-2.3742,-2.3751,-2.3759,-2.3788,-2.3798,-2.3673,-2.3673,-2.3673,0,-2.3313,-2.3363,-2.3359,-2.3398,-2.3416,-2.34,-2.3444,-2.346,-2.3494,-2.3507,-2.3489,-2.3561,-2.3577,-2.3639,-2.3659,-2.3673,-2.3686,-2.3663,-2.375,-2.3758,-2.3766,-2.3793,-2.3804,-2.3676,-2.3676,-2.3675,-2.3675,0,-2.3402,-2.3437,-2.3469,-2.35,-2.3523,-2.3564,-2.3568,-2.3591,-2.3587,-2.3594,-2.3646,-2.3664,-2.3699,-2.3714,-2.371,-2.3777,-2.3767,-2.375,-2.3718,-2.3779,-2.3805,-2.3815,-2.3679,-2.3679,-2.3678,-2.3677,0,0,-2.3491,-2.3521,-2.3533,-2.3548,-2.3574,-2.3602,-2.3643,-2.3677,-2.3697,-2.3722,-2.3757,-2.3806,-2.3791,-2.3811,-2.3809,-2.384,-2.3902,-2.3819,-2.382,-2.3834,-2.3978,-2.399,-2.4002,-2.3895,-2.3897,-2.3899,-2.3976,0,-2.3562,-2.3632,-2.3632,-2.3698,-2.3731,-2.3718,-2.3754,-2.3775,-2.3783,-2.3814,-2.3823,-2.3858,-2.3836,-2.3847,-2.3877,-2.3888,-2.3931,-2.3883,-2.3929,-2.393,-2.3922,-2.4015,-2.4028,-2.4099,-2.3986,-2.3987,-2.3989,0,-2.3653,-2.368,-2.3749,-2.3771,-2.3785,-2.3818,-2.385,-2.3879,-2.3903,-2.3907,-2.393,-2.3924,-2.3968,-2.3936,-2.3998,-2.3965,-2.3984,-2.3993,-2.3996,-2.3999,-2.3962,-2.4021,-2.4122,-2.4133,-2.4004,-2.4003,-2.4002,0,-2.3711,-2.3764,-2.3813,-2.3826,-2.3854,-2.3877,-2.389,-2.3912,-2.3933,-2.3962,-2.3976,-2.401,-2.4028,-2.4055,-2.406,-2.4036,-2.4122,-2.4089,-2.4127,-2.4127,-2.4144,-2.4143,-2.425,-2.4158,-2.4158,-2.4158,-2.4157,0,-2.3789,-2.3832,-2.3839,-2.3869,-2.3918,-2.3918,-2.3966,-2.3978,-2.3998,-2.4031,-2.4023,-2.4054,-2.4058,-2.4092,-2.4096,-2.4147,-2.4155,-2.416,-2.4161,-2.4161,-2.416,-2.4172,-2.4167,-2.416,-2.416,-2.4159,-2.4159,0,-2.3861,-2.3868,-2.392,-2.3942,-2.3949,-2.3984,-2.4004,-2.4033,-2.4041,-2.4083,-2.4093,-2.4106,-2.4145,-2.4152,-2.4198,-2.4201,-2.4262,-2.4258,-2.4253,-2.4252,-2.4289,-2.4286,-2.4407,-2.4423,-2.4321,-2.4322,-2.4323,0,-2.391,-2.3943,-2.3969,-2.399,-2.4004,-2.4038,-2.406,-2.4062,-2.4085,-2.4117,-2.4143,-2.4181,-2.4211,-2.4274,-2.4288,-2.4324,-2.432,-2.4361,-2.4326,-2.4325,-2.4321,-2.4319,-2.4322,-2.4367,-2.4368,-2.4369,-2.437,0,-2.3997,-2.3999,-2.403,-2.4062,-2.4088,-2.4114,-2.4138,-2.4157,-2.4163,-2.419,-2.4229,-2.4252,-2.43,-2.4338,-2.4374,-2.4389,-2.4381,-2.4381,-2.4391,-2.4391,-2.4387,-2.439,-2.4271,-2.4378,-2.4377,-2.4376,-2.4376,-2.4376,-2.4059,-2.4088,-2.4111,-2.4146,-2.4165,-2.4189,-2.4218,-2.423,-2.4262,-2.43,-2.43,-2.4344,-2.437,-2.4417,-2.4434,-2.4469,-2.4457,-2.4472,-2.4476,-2.4479,-2.4483,-2.4382,-2.4476,-2.4476,-2.4476,-2.4475,-2.4475,0,-2.4146,-2.416,-2.4192,-2.4227,-2.4255,-2.4245,-2.4272,-2.4297,-2.4335,-2.4359,-2.4389,-2.4435,-2.4473,-2.4491,-2.4528,-2.4553,-2.455,-2.4563,-2.456,-2.4564,-2.4492,-2.4479,-2.4564,-2.4564,-2.4564,-2.4564,-2.4564,-2.4564,-2.4194,-2.4242,-2.4247,-2.4306,-2.4321,-2.4362,-2.4379,-2.4402,-2.4421,-2.4472,-2.4503,-2.4515,-2.4537,-2.4577,-2.4611,-2.4616,-2.463,-2.4644,-2.4647,-2.4578,-2.4569,-2.4561,-2.4548,-2.4647,-2.4647,-2.4716,-2.4717,-2.4718]},{"header":{"parameterUnit":"m.s-1","parameterCategory":1,"la1":30.2991,"la2":30.254,"lo1":-89.0895,"lo2":-89.0444,"dy":0.0017,"dx":0.0017,"nx":28,"ny":28,"refTime":"2024-06-04T03:00:00:Z","depth":0,"parameterNumber":3,"parameterNumberName":"V-component_of_WINDS"},"data":[0,0,0,0,0,0,0,0,0,0,0,0,0,0,0,0,0,0,0,0,0,0,0,0,0,0,0,0,0,0,0,0,0,0,0,0,0,0,0,0,0,0,0,0,0,0,0,0,0,0,0,0,0,0,0,0,0,0,5.2856,5.2857,0,5.3005,5.3006,5.3008,5.3076,5.3076,5.3076,5.3076,5.3223,5.3227,5.3231,0,0,0,0,0,0,0,0,0,0,0,0,0,5.2624,5.2628,5.2856,5.2857,5.2859,5.3004,5.3006,5.3009,5.3076,5.3076,5.3076,5.3076,5.3222,5.3226,5.3231,0,0,0,0,0,0,0,0,0,0,0,0,0,5.2744,5.2629,5.2855,5.2911,5.2917,5.3004,5.3007,5.3009,5.3076,5.3076,5.3076,5.3075,5.322,5.3226,5.3232,5.3273,0,0,5.325,5.3253,0,0,0,0,0,0,0,0,5.2737,5.2752,5.2901,5.2907,5.2914,5.3022,5.2979,5.3097,5.3076,5.3015,5.3076,5.3075,5.3156,5.3167,5.3195,5.328,5.3287,5.3251,5.3255,5.3257,5.3259,0,0,0,0,0,0,0,5.2729,5.2746,5.2914,5.2903,5.2911,5.2926,5.2943,5.3002,5.3085,5.3021,5.3026,5.3043,5.3159,5.3189,5.3199,5.3289,5.3251,5.3256,5.326,5.3262,5.3414,5.3415,0,0,0,0,0,0,5.2712,5.2739,5.291,5.2919,5.2823,5.2931,5.2949,5.2987,5.3084,5.3099,5.3043,5.3046,5.3179,5.3192,5.3205,5.326,5.3257,5.3263,5.3266,5.3414,5.3415,5.3415,0,0,0,0,0,0,5.2707,5.2727,5.2904,5.283,5.2854,5.2935,5.2977,5.299,5.3021,5.3101,5.3116,5.3059,5.3179,5.3196,5.3256,5.3266,5.3266,5.3271,5.3414,5.3414,5.3415,5.3371,0,0,0,0,0,0,5.27,5.2724,5.2742,5.283,5.2858,5.2954,5.2978,5.2993,5.3031,5.3036,5.312,5.3134,5.3181,5.3247,5.3262,5.3274,5.3276,5.3413,5.3414,5.3415,5.3372,5.337,5.3368,0,0,0,0,0,5.2691,5.2723,5.2743,5.2763,5.2882,5.2955,5.297,5.3025,5.3032,5.305,5.3102,5.3131,5.3262,5.3252,5.327,5.3284,5.3413,5.3414,5.3414,5.3372,5.337,5.3368,0,0,0,0,0,0,5.2632,5.2735,5.2759,5.282,5.2878,5.2966,5.2991,5.3021,5.3077,5.3079,5.3143,5.3161,5.3216,5.3256,5.3243,5.3329,5.334,5.3344,5.3302,5.33,5.3298,5.3288,5.3281,0,0,0,0,0,5.2627,5.2679,5.2765,5.2811,5.2839,5.2909,5.2943,5.298,5.3043,5.3067,5.3123,5.3181,5.3235,5.327,5.3324,5.3377,5.3396,5.3395,5.3393,5.3392,5.3395,5.3426,5.3427,5.3418,5.3418,5.3418,0,0,5.2615,5.2678,5.2707,5.28,5.285,5.2901,5.293,5.2982,5.302,5.3074,5.3136,5.3178,5.3246,5.3303,5.3331,5.3338,5.3401,5.3393,5.3391,5.3395,5.3427,5.3428,5.3428,5.3419,5.3418,5.3418,0,0,5.2621,5.2673,5.2718,5.2767,5.2842,5.2888,5.2898,5.2982,5.3013,5.3075,5.3117,5.3161,5.3254,5.3301,5.3337,5.3358,5.3387,5.3374,5.3365,5.3394,5.3395,5.3396,5.3404,5.3406,5.3377,5.3377,5.3377,0,5.2597,5.2677,5.2736,5.2787,5.2826,5.2879,5.2923,5.2967,5.3055,5.308,5.3088,5.3205,5.3254,5.3323,5.3328,5.3355,5.3368,5.3366,5.339,5.3392,5.3394,5.3402,5.3405,5.3375,5.3375,5.3375,5.3375,0,5.2644,5.2698,5.2724,5.281,5.2853,5.2899,5.2964,5.2999,5.3032,5.3077,5.3139,5.32,5.3268,5.3286,5.3318,5.3359,5.3361,5.3378,5.3391,5.3391,5.34,5.3404,5.3372,5.3373,5.3373,5.3374,0,0,5.2618,5.2735,5.2744,5.2783,5.2869,5.2912,5.296,5.3028,5.3057,5.3115,5.3157,5.3233,5.3249,5.329,5.3327,5.3353,5.3366,5.3367,5.3369,5.3365,5.3414,5.3402,5.3405,5.3385,5.3386,5.3387,5.3409,0,5.2636,5.2728,5.2781,5.285,5.2901,5.2951,5.2993,5.3049,5.3092,5.3139,5.3186,5.3239,5.3257,5.3282,5.3309,5.3359,5.3377,5.3358,5.3424,5.3425,5.3406,5.3409,5.3397,5.3415,5.3413,5.3413,5.3414,0,5.267,5.2729,5.2803,5.2883,5.2906,5.2944,5.301,5.3055,5.3119,5.3148,5.3193,5.3231,5.3282,5.3288,5.3359,5.3345,5.3374,5.3403,5.3405,5.3414,5.342,5.3419,5.3422,5.3425,5.342,5.3419,5.3419,0,5.2644,5.2742,5.2799,5.2831,5.2926,5.2951,5.2991,5.3055,5.3092,5.3148,5.3173,5.3234,5.3267,5.3313,5.3365,5.3365,5.343,5.3441,5.3455,5.3454,5.3468,5.3467,5.3476,5.3485,5.3485,5.3485,5.3485,0,5.266,5.2703,5.2789,5.2824,5.2874,5.2934,5.2981,5.3025,5.3081,5.3124,5.317,5.3209,5.3275,5.3322,5.3362,5.3415,5.3429,5.3453,5.3464,5.345,5.3447,5.3471,5.3472,5.3485,5.3485,5.3485,5.3485,0,5.264,5.27,5.2766,5.285,5.2872,5.2905,5.2976,5.3011,5.3056,5.311,5.3126,5.3195,5.3253,5.3309,5.3385,5.3413,5.3464,5.3478,5.3444,5.345,5.3461,5.3459,5.3487,5.3494,5.3496,5.3496,5.3496,0,5.2647,5.2682,5.277,5.2803,5.2843,5.2895,5.2934,5.2993,5.3031,5.3106,5.3131,5.3192,5.3245,5.3333,5.339,5.3448,5.3464,5.3469,5.3473,5.3458,5.3465,5.3463,5.3466,5.3468,5.3468,5.3467,5.3467,0,5.2652,5.268,5.2734,5.2799,5.2844,5.2897,5.2952,5.2976,5.3045,5.3085,5.3146,5.3186,5.3265,5.3324,5.3389,5.3428,5.3459,5.3465,5.3472,5.3459,5.3438,5.345,5.344,5.3465,5.3465,5.3465,5.3465,5.3466,5.2647,5.268,5.2748,5.2807,5.2854,5.2904,5.2942,5.2991,5.3043,5.3113,5.3144,5.3204,5.3266,5.3357,5.3395,5.3442,5.345,5.3459,5.3461,5.3463,5.346,5.3429,5.3453,5.3454,5.3454,5.3454,5.3454,0,5.2655,5.2701,5.2755,5.2831,5.2876,5.2903,5.2964,5.3,5.3054,5.3109,5.316,5.3228,5.3286,5.3346,5.3407,5.3433,5.3449,5.3447,5.3446,5.3455,5.3449,5.3438,5.3433,5.3433,5.3433,5.3433,5.3433,5.3433,5.2665,5.2723,5.2758,5.284,5.2885,5.2946,5.2979,5.3024,5.3069,5.3144,5.3193,5.3233,5.329,5.3355,5.3409,5.3425,5.3445,5.344,5.346,5.3454,5.3455,5.3456,5.3446,5.3443,5.3443,5.3461,5.3462,5.3462]}]]